CZ-2D DEB, 44611

Orbit data source: Space-Track

CZ-2D DEB, 44611 is space debris in SSO originally from a launch on Mon, 09 Oct 2017 UTC launched from the Jiuquan Satellite Launch Center, China (JSC). Debris objects in space refer to the collection of defunct objects orbiting the Earth. Examples of debris include non-operational satellites, rocket bodies, and fragments generated from explosions, collisions, or faulty payload assembly.

Loading next visibility...
Identifier
44611, 2017-060D
Orbit
SSO
Last TLE update
1 day ago
Origin
Manufacturer
Unknown
Mission
Spacecraft
Bus & Motor
Unknown
Mass
Unknown
Launch date (UTC)
2017-10-09 (8 years ago)
Launch vehicle
Unknown
Launch site
Jiuquan Satellite Launch Center, China (JSC)
Object type
Payload
Rocket body
Debris
Shape & HBR
Unknown
Radar Cross Section
Small (<0.1 m²)

Expand to show TLE details & history

TLE from 1 day ago
0 CZ-2D DEB
1 44611U 17060D   25129.14180533  .00005055  00000-0  51743-3 0  9992
2 44611  98.1774 263.8217 0030555   6.3348 353.8249 14.90645067406854
Epoch: 2025-05-09T03:24Z
Definitive object data (Epoch: 2025-05-09T03:24:11.98Z)
Latitude
-0.00004°
Longitude
-14.43041°
Altitude
577.761 km
Speed
7.583 km/s
True Right ascension
17h 35m 17s
True Declination
0° 00' 00"
Sunlit
Object was in full shadow at TLE epoch
Visualization TLE readout
Latitude
-58.61695°
Longitude
153.10779°
Altitude
630.283 km
Speed
7.536 km/s
Apparent Right ascension
02h 29m 32s
Apparent Declination
-53° 16' 06"
Sunlit
Object is in daylight
Visualization observer readout
Local Sidereal Time
12:50:54
Azimuth
223.178° SW
Elevation
-68.612°
Doppler factor
1
Orbital elements
Apogee altitude
614.262 km
Perigee altitude
571.662 km
Semi-major axis
6,971.099 km
Eccentricity
0.0030555
Inclination
98.1774°
RAAN
263.8217°
Arg. of periapsis
6.3348°
True anomaly
353.78709°
Mean anomaly
353.8249°
Eccentric anomaly
353.80601°
Mean motion
3.72899 °/min
BSTAR
0.00051743
Orbital period
96.54 mins
Loading maneuver chart data...
Loading SW <> Apogee altitude chart data...
Loading historical data...
Loading historical data...
Loading historical data...
Loading historical data...
Loading historical data...
Loading historical data...
Loading historical data...
Other satellites on launch #60 in the year 2017 (2017-10-09 UTC)

CZ-2D DEB Visibility forecast

Observer location: undefined°, undefined°

Span
Click to sort rows by Start time (UTC) header in descending order
Start Az.
Max El. time (UTC)
Max El. Az.
Max El.
End time (UTC)
End Az.
7 mins2025-05-10 08:31:25.373Z144.562° SSE2025-05-10 08:35:25.373Z61.314° ENE35.046°2025-05-10 08:38:25.373Z3.24° NNE
6 mins2025-05-10 21:52:25.373Z13.266° NNE2025-05-10 21:54:25.373Z14.304° NNE44.118°2025-05-10 21:58:25.373Z194.007° SSW
|